Flag for U.S.A. Weather past 2 weeks in Farmington, New Mexico, U.S.A.

Now
57 °F

Partly sunny.


Feels Like: 55 °F
Forecast: 49 / 61 °F
Wind: 10 mph from Southwest

Location: Four Corners Regional Airport

Current Time: May 4, 2015 at 6:19:59 PM

Latest Report: May 4, 2015 at 5:53 PM


Visibility: 10 mi

Pressure: 29.86 "Hg

Humidity: 60%

Dew point: 43 °F

Location of FarmingtonLocation

Historic Weather in Farmington — Graph

°F

Farmington temperature yesterday

Maximum temperature yesterday: 72 °F (at 12:53 PM)
Minimum temperature yesterday: 53 °F (at 2:53 AM)
Average temperature yesterday: 61 °F

Past Weeks' High & Low Weather Summary

 TemperatureHumidityPressure
High81 °F (Apr 30, 3:53 PM)93% (Apr 26, 4:00 AM)30.23 "Hg (Apr 26, 4:00 AM)
Low35 °F (Apr 20, 4:53 AM)9% (Apr 21, 3:53 PM)29.66 "Hg (Apr 26, 5:53 AM)
Average56 °F44%29.88 "Hg
* Reported Apr 19 4:53 PM — May 4 4:53 PM, Farmington, Weather by CustomWeather, © 2015

Note: Actual official high and low records may vary slightly from our data, if they occured in-between our weather recording intervals... More about our weather records

Advertising

Farmington weather history for previous 24 hours

 ConditionsComfort  
Time TempWeatherWind HumidityBarometerVisibility
4:53 PM
Mon, May 4
59 °FLight rain. More clouds than sun.23 mph56%29.84 "Hg10 mi
3:53 PM64 °FLight rain. Broken clouds.9 mph49%29.82 "Hg10 mi
2:53 PM59 °FPartly sunny.8 mph62%29.86 "Hg10 mi
1:53 PM60 °FThunderstorms. Mostly cloudy.7 mph53%29.85 "Hg9 mi
12:53 PM68 °FScattered clouds.No wind32%29.83 "Hg10 mi
11:53 AM70 °FPassing clouds.7 mph31%29.86 "Hg10 mi
10:53 AM65 °FSunny.6 mph36%29.90 "Hg10 mi
9:53 AM63 °FSunny.9 mph41%29.92 "Hg10 mi
8:53 AM57 °FPartly sunny.6 mph51%29.93 "Hg10 mi
7:53 AM54 °FSunny.8 mph57%29.93 "Hg10 mi
6:53 AM49 °FClear.5 mph66%29.93 "Hg10 mi
5:53 AM49 °FPassing clouds.8 mph69%29.91 "Hg10 mi
4:53 AM48 °FClear.7 mph68%29.90 "Hg10 mi
3:53 AM52 °FOvercast.9 mph61%29.89 "Hg10 mi
2:53 AM54 °FPassing clouds.7 mph57%29.90 "Hg10 mi
1:53 AM55 °FOvercast.5 mph57%29.89 "Hg10 mi
12:53 AM56 °FOvercast.No wind53%29.89 "Hg10 mi
11:53 PM
Sun, May 3
54 °FPassing clouds.7 mph55%29.88 "Hg10 mi
10:53 PM57 °FClear.6 mph47%29.89 "Hg10 mi
9:53 PM57 °FPassing clouds.5 mph47%29.88 "Hg10 mi
8:53 PM58 °FPartly sunny.No wind47%29.88 "Hg10 mi
7:53 PM61 °FSunny.10 mph42%29.87 "Hg10 mi
6:53 PM65 °FSunny.8 mph34%29.85 "Hg10 mi
Weather by CustomWeather, © 2015

See weather overviewHow to use our weather pages